Location: Góry Miechowskie
(50.3599°N, 20.1803°E)
Time: 02:26:12
(UTC+00:00)

Cosmos 2341 Rocket - Pass Details

Date: 15 June 2024
Orbit: 969 x 1003 km, 82.9° (Epoch: 22 July)

Event Time Altitude Azimuth Distance (km) Brightness Sun altitude
Exits shadow 00:28:14 17° 199° (SSW) 2,264 5.3 -12.5°
Maximum altitude 00:33:12 72° 281° (WNW) 1,023 4.1 -12.2°
Drops below altitude 10° 00:39:27 10° 7° (N) 2,730 7.6 -11.7°
Sets 00:42:00 0° 9° (N) 3,685 8.5 -11.5°
